When you browse on this site, cookies collect data to enhance your experience and personalize the content and advertising you see.
Visit our Privacy Policy to learn more. By continuing to use the site, you agree to this use of cookies and data.

Meteo pe oră la Kanye

Astăzi, 22 Septembrie, Marţi

Timp Temperatura Precipitaţii Vânt Presiune Umiditate
00:00 +17°C° 0 mm 5 m/s 653 mmHg 12%
01:00 +17°C° 0 mm 4 m/s 652 mmHg 13%
02:00 +15°C° 0 mm 4 m/s 653 mmHg 14%
03:00 +15°C° 0 mm 5 m/s 653 mmHg 26%
04:00 +15°C° 0 mm 6 m/s 653 mmHg 38%
05:00 +15°C° 0 mm 7 m/s 653 mmHg 51%
06:00 +15°C° 0 mm 8 m/s 654 mmHg 55%
07:00 +15°C° 0 mm 9 m/s 655 mmHg 60%
08:00 +13°C° 0 mm 11 m/s 656 mmHg 62%
09:00 +16°C° 0 mm 11 m/s 656 mmHg 58%
10:00 +17°C° 0 mm 11 m/s 656 mmHg 54%
11:00 +18°C° 0 mm 11 m/s 657 mmHg 50%
12:00 +19°C° 0 mm 10 m/s 657 mmHg 47%
13:00 +21°C° 0 mm 9 m/s 656 mmHg 43%
14:00 +23°C° 0 mm 8 m/s 656 mmHg 40%
15:00 +22°C° 0 mm 8 m/s 656 mmHg 41%
16:00 +22°C° 0 mm 7 m/s 656 mmHg 41%
17:00 +22°C° 0 mm 7 m/s 656 mmHg 42%
18:00 +20°C° 0 mm 6 m/s 656 mmHg 47%
19:00 +19°C° 0 mm 5 m/s 656 mmHg 53%
20:00 +16°C° 0 mm 5 m/s 656 mmHg 58%
21:00 +15°C° 0 mm 6 m/s 656 mmHg 60%
22:00 +15°C° 0 mm 6 m/s 656 mmHg 61%
23:00 +14°C° 0 mm 7 m/s 656 mmHg 63%

Mâine, 23 Septembrie, Miercuri

Timp Temperatura Precipitaţii Vânt Presiune Umiditate
00:00 +12°C° 0 mm 7 m/s 656 mmHg 66%
01:00 +11°C° 0 mm 7 m/s 655 mmHg 70%
02:00 +11°C° 0 mm 7 m/s 654 mmHg 73%
03:00 +10°C° 0 mm 6 m/s 654 mmHg 76%
04:00 +9°C° 0 mm 6 m/s 654 mmHg 79%
05:00 +9°C° 0 mm 6 m/s 653 mmHg 82%
06:00 +10°C° 0 mm 7 m/s 654 mmHg 77%
07:00 +11°C° 0 mm 7 m/s 655 mmHg 72%
08:00 +12°C° 0 mm 8 m/s 656 mmHg 67%
09:00 +16°C° 0 mm 7 m/s 656 mmHg 56%
10:00 +20°C° 0 mm 7 m/s 657 mmHg 45%
11:00 +23°C° 0 mm 7 m/s 657 mmHg 34%
12:00 +26°C° 0 mm 6 m/s 657 mmHg 30%
13:00 +28°C° 0 mm 5 m/s 656 mmHg 26%
14:00 +30°C° 0 mm 5 m/s 656 mmHg 22%
15:00 +29°C° 0 mm 4 m/s 655 mmHg 22%
16:00 +29°C° 0 mm 4 m/s 655 mmHg 21%
17:00 +29°C° 0 mm 3 m/s 654 mmHg 21%
18:00 +27°C° 0 mm 3 m/s 654 mmHg 25%
19:00 +24°C° 0 mm 3 m/s 654 mmHg 29%
20:00 +21°C° 0 mm 3 m/s 653 mmHg 33%
21:00 +20°C° 0 mm 3 m/s 653 mmHg 35%
22:00 +19°C° 0 mm 3 m/s 653 mmHg 37%
23:00 +18°C° 0 mm 3 m/s 653 mmHg 39%

Poimâine, 24 Septembrie, Joi

Timp Temperatura Precipitaţii Vânt Presiune Umiditate
00:00 +18°C° 0 mm 3 m/s 653 mmHg 42%
01:00 +17°C° 0 mm 3 m/s 652 mmHg 44%
02:00 +16°C° 0 mm 3 m/s 651 mmHg 47%
03:00 +16°C° 0 mm 3 m/s 651 mmHg 49%
04:00 +14°C° 0 mm 3 m/s 651 mmHg 52%
05:00 +14°C° 0 mm 4 m/s 651 mmHg 54%
06:00 +15°C° 0 mm 4 m/s 652 mmHg 50%
07:00 +17°C° 0 mm 5 m/s 653 mmHg 45%
08:00 +19°C° 0 mm 5 m/s 653 mmHg 41%
09:00 +23°C° 0 mm 5 m/s 654 mmHg 34%
10:00 +27°C° 0 mm 6 m/s 655 mmHg 28%
11:00 +30°C° 0 mm 6 m/s 655 mmHg 21%
12:00 +32°C° 0 mm 5 m/s 655 mmHg 19%
13:00 +34°C° 0 mm 5 m/s 654 mmHg 18%
14:00 +35°C° 0 mm 4 m/s 653 mmHg 16%
15:00 +34°C° 0 mm 3 m/s 653 mmHg 16%
16:00 +34°C° 0 mm 2 m/s 652 mmHg 17%
17:00 +32°C° 0 mm 2 m/s 652 mmHg 17%
18:00 +30°C° 0 mm 2 m/s 651 mmHg 20%
19:00 +27°C° 0 mm 2 m/s 651 mmHg 24%
20:00 +24°C° 0 mm 2 m/s 650 mmHg 27%
21:00 +24°C° 0 mm 2 m/s 650 mmHg 28%
22:00 +22°C° 0 mm 3 m/s 650 mmHg 29%
23:00 +22°C° 0 mm 3 m/s 650 mmHg 29%

25 Septembrie, Vineri

Timp Temperatura Precipitaţii Vânt Presiune Umiditate
00:00 +21°C° 0 mm 3 m/s 650 mmHg 29%
01:00 +20°C° 0 mm 3 m/s 649 mmHg 29%
02:00 +20°C° 0 mm 3 m/s 649 mmHg 29%
03:00 +19°C° 0 mm 3 m/s 649 mmHg 30%
04:00 +18°C° 0 mm 2 m/s 649 mmHg 30%
05:00 +18°C° 0 mm 2 m/s 649 mmHg 31%
06:00 +20°C° 0 mm 2 m/s 650 mmHg 28%
07:00 +22°C° 0 mm 3 m/s 651 mmHg 25%
08:00 +25°C° 0 mm 4 m/s 652 mmHg 22%
09:00 +28°C° 0 mm 4 m/s 652 mmHg 19%
10:00 +32°C° 0 mm 4 m/s 653 mmHg 17%
11:00 +35°C° 0 mm 5 m/s 653 mmHg 14%
12:00 +36°C° 0 mm 5 m/s 652 mmHg 13%
13:00 +36°C° 0 mm 5 m/s 651 mmHg 13%
14:00 +38°C° 0 mm 6 m/s 650 mmHg 12%
15:00 +38°C° 0 mm 6 m/s 650 mmHg 12%
16:00 +36°C° 0 mm 5 m/s 649 mmHg 13%
17:00 +36°C° 0 mm 5 m/s 648 mmHg 13%
18:00 +33°C° 0 mm 4 m/s 648 mmHg 16%
19:00 +30°C° 0 mm 3 m/s 648 mmHg 19%
20:00 +27°C° 0 mm 3 m/s 648 mmHg 22%
21:00 +26°C° 0 mm 2 m/s 647 mmHg 24%
22:00 +24°C° 0 mm 2 m/s 647 mmHg 27%
23:00 +23°C° 0 mm 1 m/s 646 mmHg 30%

26 Septembrie, Sâmbătă

Timp Temperatura Precipitaţii Vânt Presiune Umiditate
00:00 +22°C° 0 mm 1 m/s 646 mmHg 31%
01:00 +22°C° 0 mm 1 m/s 646 mmHg 33%
02:00 +21°C° 0 mm 1 m/s 646 mmHg 35%
03:00 +19°C° 0 mm 2 m/s 646 mmHg 34%
04:00 +18°C° 0 mm 3 m/s 646 mmHg 34%
05:00 +17°C° 0 mm 4 m/s 646 mmHg 34%
06:00 +19°C° 0 mm 5 m/s 647 mmHg 26%
07:00 +20°C° 0 mm 5 m/s 648 mmHg 17%
08:00 +21°C° 0 mm 6 m/s 649 mmHg 9%
09:00 +24°C° 0 mm 6 m/s 649 mmHg 8%
10:00 +27°C° 0 mm 6 m/s 650 mmHg 8%
11:00 +30°C° 0 mm 7 m/s 650 mmHg 7%
12:00 +30°C° 0 mm 7 m/s 650 mmHg 6%
13:00 +32°C° 0 mm 8 m/s 650 mmHg 5%
14:00 +33°C° 0 mm 8 m/s 649 mmHg 4%
15:00 +31°C° 0 mm 8 m/s 649 mmHg 5%
16:00 +29°C° 0 mm 7 m/s 649 mmHg 6%
17:00 +28°C° 0 mm 7 m/s 648 mmHg 6%
18:00 +24°C° 0 mm 6 m/s 648 mmHg 7%
19:00 +21°C° 0 mm 5 m/s 648 mmHg 8%
20:00 +18°C° 0 mm 4 m/s 648 mmHg 9%
21:00 +17°C° 0 mm 4 m/s 648 mmHg 11%
22:00 +15°C° 0 mm 4 m/s 648 mmHg 12%
23:00 +14°C° 0 mm 4 m/s 648 mmHg 13%

27 Septembrie, Duminică

Timp Temperatura Precipitaţii Vânt Presiune Umiditate
00:00 +12°C° 0 mm 4 m/s 648 mmHg 15%
01:00 +11°C° 0 mm 4 m/s 647 mmHg 16%
02:00 +10°C° 0 mm 3 m/s 647 mmHg 18%
03:00 +10°C° 0 mm 3 m/s 647 mmHg 19%
04:00 +9°C° 0 mm 3 m/s 647 mmHg 20%
05:00 +9°C° 0 mm 3 m/s 647 mmHg 21%
06:00 +11°C° 0 mm 3 m/s 648 mmHg 18%
07:00 +14°C° 0 mm 3 m/s 649 mmHg 15%
08:00 +17°C° 0 mm 4 m/s 650 mmHg 12%
09:00 +20°C° 0 mm 3 m/s 650 mmHg 10%
10:00 +24°C° 0 mm 3 m/s 651 mmHg 8%
11:00 +27°C° 0 mm 3 m/s 651 mmHg 5%
12:00 +29°C° 0 mm 3 m/s 651 mmHg 5%
13:00 +30°C° 0 mm 3 m/s 651 mmHg 4%
14:00 +32°C° 0 mm 4 m/s 650 mmHg 3%
15:00 +32°C° 0 mm 4 m/s 650 mmHg 3%
16:00 +30°C° 0 mm 5 m/s 649 mmHg 3%
17:00 +30°C° 0 mm 5 m/s 649 mmHg 3%
18:00 +26°C° 0 mm 4 m/s 649 mmHg 5%
19:00 +22°C° 0 mm 4 m/s 648 mmHg 6%
20:00 +18°C° 0 mm 4 m/s 648 mmHg 8%
21:00 +17°C° 0 mm 4 m/s 648 mmHg 9%
22:00 +15°C° 0 mm 4 m/s 648 mmHg 10%
23:00 +15°C° 0 mm 4 m/s 649 mmHg 11%
Arată mai mult